,,,PA_Meas_PMT16A,,PR_Meas_QMR101_102,,RH_Meas_QMH101,,SR_Meas_QMS101,,TA_Meas_QMH101,,GenWind,,GenWind,
date,time,status,PA,status,PR,status,RH,status,SR,status,TA,status,DirAvg,status,SpdAvg,
2009-08-05, 00:00:04,VALID,1004.03,VALID,0,VALID,88.1517,VALID,0,VALID,25.9038,VALID,349,VALID,0.135937,
2009-08-05, 00:01:04,VALID,1004.04,VALID,0,VALID,88.1212,VALID,0,VALID,25.8823,VALID,346,VALID,0.633203,
2009-08-05, 00:02:04,VALID,1004,VALID,0,VALID,87.9534,VALID,0,VALID,25.9018,VALID,352,VALID,0.712891,
2009-08-05, 00:03:04,VALID,1003.98,VALID,0,VALID,87.9076,VALID,0.100563,VALID,25.9213,VALID,346,VALID,0.5375,
2009-08-05, 00:04:04,VALID,1003.98,VALID,0,VALID,87.9,VALID,0,VALID,25.8823,VALID,346,VALID,0.55,
2009-08-05, 00:05:04,VALID,1003.92,VALID,0,VALID,87.9762,VALID,0,VALID,25.8434,VALID,341,VALID,0.626172,
2009-08-05, 00:06:04,VALID,1003.92,VALID,0,VALID,88.022,VALID,0,VALID,25.8259,VALID,342,VALID,0.453516,
2009-08-05, 00:07:04,VALID,1003.92,VALID,0,VALID,88.167,VALID,0,VALID,25.7869,VALID,343,VALID,0.355859,
2009-08-05, 00:08:04,VALID,1003.9,VALID,0,VALID,88.2967,VALID,0,VALID,25.7655,VALID,343,VALID,0.155078,
2009-08-05, 00:09:04,VALID,1003.92,VALID,0,VALID,88.4416,VALID,0,VALID,25.7674,VALID,343,VALID,0.107031,
2009-08-05, 00:10:04,VALID,1003.89,VALID,0,VALID,88.701,VALID,0,VALID,25.7265,VALID,358,VALID,0.169531,
2009-08-05, 00:11:04,VALID,1003.86,VALID,0,VALID,88.8536,VALID,0,VALID,25.7285,VALID,6,VALID,0,
2009-08-05, 00:12:04,VALID,1003.83,VALID,0,VALID,88.8688,VALID,0,VALID,25.7285,VALID,360,VALID,0,
2009-08-05, 00:13:04,VALID,1003.82,VALID,0,VALID,88.9375,VALID,0,VALID,25.709,VALID,360,VALID,0,
2009-08-05, 00:14:04,VALID,1003.79,VALID,0,VALID,89.0443,VALID,0,VALID,25.709,VALID,342,VALID,0.285547,
2009-08-05, 00:15:04,VALID,1003.78,VALID,0,VALID,89.029,VALID,0,VALID,25.7265,VALID,326,VALID,0.0328125,
2009-08-05, 00:16:04,VALID,1003.79,VALID,0,VALID,88.9527,VALID,0,VALID,25.7674,VALID,314,VALID,0.426172,
2009-08-05, 00:17:04,VALID,1003.81,VALID,0,VALID,88.8765,VALID,0,VALID,25.746,VALID,313,VALID,0.113281,
2009-08-05, 00:18:04,VALID,1003.78,VALID,0,VALID,88.8383,VALID,0.100563,VALID,25.7655,VALID,306,VALID,0.29375,
2009-08-05, 00:19:04,VALID,1003.81,VALID,0,VALID,88.7315,VALID,0,VALID,25.7869,VALID,304,VALID,0.154297,
2009-08-05, 00:20:04,VALID,1003.8,VALID,0,VALID,88.6476,VALID,0.100563,VALID,25.8044,VALID,309,VALID,0.164844,
2009-08-05, 00:21:04,VALID,1003.79,VALID,0,VALID,88.4492,VALID,0,VALID,25.8259,VALID,341,VALID,0.489453,
2009-08-05, 00:22:04,VALID,1003.76,VALID,0,VALID,88.2585,VALID,0,VALID,25.8434,VALID,352,VALID,0.319922,
2009-08-05, 00:23:04,VALID,1003.77,VALID,0,VALID,88.1975,VALID,0,VALID,25.8648,VALID,348,VALID,0.405469,
2009-08-05, 00:24:04,VALID,1003.73,VALID,0,VALID,88.1212,VALID,0,VALID,25.8434,VALID,348,VALID,0.489062,
2009-08-05, 00:25:04,VALID,1003.71,VALID,0,VALID,88.1212,VALID,0,VALID,25.8239,VALID,349,VALID,0.505859,
2009-08-05, 00:26:04,VALID,1003.7,VALID,0,VALID,88.1517,VALID,0,VALID,25.8044,VALID,352,VALID,0.240234,
2009-08-05, 00:27:04,VALID,1003.67,VALID,0,VALID,88.2204,VALID,0,VALID,25.785,VALID,352,VALID,0.369141,
2009-08-05, 00:28:04,VALID,1003.63,VALID,0,VALID,88.4569,VALID,0,VALID,25.746,VALID,352,VALID,0.324609,
2009-08-05, 00:29:04,VALID,1003.65,VALID,0,VALID,88.6247,VALID,0,VALID,25.748,VALID,352,VALID,0.128906,
2009-08-05, 00:30:04,VALID,1003.63,VALID,0,VALID,88.762,VALID,0,VALID,25.6876,VALID,338,VALID,0.445313,
2009-08-05, 00:31:04,VALID,1003.61,VALID,0,VALID,88.9222,VALID,0,VALID,25.6681,VALID,341,VALID,0.433203,
2009-08-05, 00:32:04,VALID,1003.61,VALID,0,VALID,89.0443,VALID,0,VALID,25.6681,VALID,344,VALID,0.196484,
2009-08-05, 00:33:04,VALID,1003.58,VALID,0,VALID,89.0672,VALID,0,VALID,25.6486,VALID,344,VALID,0.450781,
2009-08-05, 00:34:04,VALID,1003.58,VALID,0,VALID,89.1282,VALID,0,VALID,25.6486,VALID,343,VALID,0.476172,
2009-08-05, 00:35:04,VALID,1003.57,VALID,0,VALID,89.1206,VALID,0,VALID,25.6506,VALID,344,VALID,0.657422,
2009-08-05, 00:36:04,VALID,1003.54,VALID,0,VALID,89.0367,VALID,0,VALID,25.67,VALID,336,VALID,0.500391,
2009-08-05, 00:37:04,VALID,1003.55,VALID,0,VALID,88.8841,VALID,0,VALID,25.6506,VALID,345,VALID,0.6,
2009-08-05, 00:38:04,VALID,1003.51,VALID,0,VALID,88.7391,VALID,0,VALID,25.67,VALID,347,VALID,0.69375,
2009-08-05, 00:39:04,VALID,1003.5,VALID,0,VALID,88.6781,VALID,0,VALID,25.6486,VALID,345,VALID,0.342969,
2009-08-05, 00:40:04,VALID,1003.49,VALID,0,VALID,88.6552,VALID,0,VALID,25.6486,VALID,347,VALID,0.552734,
2009-08-05, 00:41:04,VALID,1003.48,VALID,0,VALID,88.5942,VALID,0,VALID,25.67,VALID,350,VALID,0.461719,
2009-08-05, 00:42:04,VALID,1003.46,VALID,0,VALID,88.5255,VALID,0,VALID,25.6895,VALID,351,VALID,0.56875,
2009-08-05, 00:43:04,VALID,1003.43,VALID,0,VALID,88.5179,VALID,0,VALID,25.6876,VALID,351,VALID,0.514844,
2009-08-05, 00:44:04,VALID,1003.44,VALID,0,VALID,88.4264,VALID,0,VALID,25.6895,VALID,351,VALID,0.516797,
2009-08-05, 00:45:04,VALID,1003.41,VALID,0,VALID,88.4416,VALID,0,VALID,25.6876,VALID,350,VALID,0.382813,
2009-08-05, 00:46:04,VALID,1003.4,VALID,0,VALID,88.3653,VALID,0,VALID,25.709,VALID,355,VALID,0.460156,
2009-08-05, 00:47:04,VALID,1003.39,VALID,0,VALID,88.3348,VALID,0,VALID,25.6895,VALID,355,VALID,0.489844,
2009-08-05, 00:48:04,VALID,1003.35,VALID,0,VALID,88.2814,VALID,0,VALID,25.6895,VALID,355,VALID,0.360156,
2009-08-05, 00:49:04,VALID,1003.35,VALID,0,VALID,88.4798,VALID,0,VALID,25.6486,VALID,355,VALID,0.355469,
2009-08-05, 00:50:04,VALID,1003.33,VALID,0,VALID,88.5866,VALID,0,VALID,25.6097,VALID,355,VALID,0.296875,
2009-08-05, 00:51:04,VALID,1003.31,VALID,0,VALID,88.6628,VALID,0,VALID,25.5707,VALID,355,VALID,0.292969,
2009-08-05, 00:52:04,VALID,1003.33,VALID,0,VALID,88.7544,VALID,0,VALID,25.5513,VALID,355,VALID,0.214844,
2009-08-05, 00:53:04,VALID,1003.29,VALID,0,VALID,88.7391,VALID,0,VALID,25.5123,VALID,355,VALID,0.180859,
2009-08-05, 00:54:04,VALID,1003.31,VALID,0,VALID,88.9527,VALID,0,VALID,25.4928,VALID,355,VALID,0.313672,
2009-08-05, 00:55:04,VALID,1003.29,VALID,0,VALID,89.0519,VALID,0,VALID,25.4753,VALID,352,VALID,0.352344,
2009-08-05, 00:56:04,VALID,1003.29,VALID,0,VALID,88.9375,VALID,0,VALID,25.4558,VALID,352,VALID,0.331641,
2009-08-05, 00:57:04,VALID,1003.3,VALID,0,VALID,88.6552,VALID,0,VALID,25.4539,VALID,352,VALID,0.218359,
2009-08-05, 00:58:04,VALID,1003.28,VALID,0,VALID,88.5484,VALID,0,VALID,25.4928,VALID,352,VALID,0.454297,
2009-08-05, 00:59:04,VALID,1003.26,VALID,0,VALID,88.6323,VALID,0,VALID,25.5532,VALID,352,VALID,0.307031,
2009-08-05, 01:00:04,VALID,1003.24,VALID,0,VALID,88.5789,VALID,0,VALID,25.5318,VALID,352,VALID,0.397656,
2009-08-05, 01:01:04,VALID,1003.22,VALID,0,VALID,88.4798,VALID,0,VALID,25.5532,VALID,352,VALID,0.559766,
2009-08-05, 01:02:04,VALID,1003.18,VALID,0,VALID,88.6171,VALID,0,VALID,25.5318,VALID,352,VALID,0.421484,
2009-08-05, 01:03:04,VALID,1003.18,VALID,0,VALID,88.5713,VALID,0,VALID,25.5123,VALID,352,VALID,0.208984,
2009-08-05, 01:04:04,VALID,1003.16,VALID,0,VALID,88.5942,VALID,0,VALID,25.4928,VALID,352,VALID,0.458594,
2009-08-05, 01:05:04,VALID,1003.17,VALID,0,VALID,88.556,VALID,0,VALID,25.4928,VALID,352,VALID,0.329297,
2009-08-05, 01:06:04,VALID,1003.15,VALID,0,VALID,88.3577,VALID,0,VALID,25.5142,VALID,352,VALID,0.570313,
2009-08-05, 01:07:04,VALID,1003.17,VALID,0,VALID,88.228,VALID,0,VALID,25.5123,VALID,352,VALID,0.358984,
2009-08-05, 01:08:04,VALID,1003.17,VALID,0,VALID,88.0678,VALID,0,VALID,25.5318,VALID,353,VALID,0.729688,
2009-08-05, 01:09:04,VALID,1003.18,VALID,0,VALID,87.9,VALID,0,VALID,25.5513,VALID,352,VALID,0.678906,
2009-08-05, 01:10:04,VALID,1003.16,VALID,0,VALID,87.6635,VALID,0,VALID,25.6311,VALID,342,VALID,0.610547,
2009-08-05, 01:11:04,VALID,1003.18,VALID,0,VALID,87.4956,VALID,0,VALID,25.6292,VALID,349,VALID,0.483594,
2009-08-05, 01:12:04,VALID,1003.14,VALID,0,VALID,87.2362,VALID,0,VALID,25.6486,VALID,347,VALID,0.628125,
2009-08-05, 01:13:04,VALID,1003.11,VALID,0,VALID,87.0455,VALID,0,VALID,25.6876,VALID,346,VALID,0.678906,
2009-08-05, 01:14:04,VALID,1003.15,VALID,0,VALID,86.9845,VALID,0,VALID,25.748,VALID,347,VALID,0.955859,
2009-08-05, 01:15:04,VALID,1003.1,VALID,0,VALID,86.7251,VALID,0,VALID,25.7655,VALID,358,VALID,0.622656,
2009-08-05, 01:16:04,VALID,1003.08,VALID,0,VALID,86.6488,VALID,0,VALID,25.8044,VALID,358,VALID,0.321484,
2009-08-05, 01:17:04,VALID,1003.1,VALID,0,VALID,86.6031,VALID,0,VALID,25.8259,VALID,353,VALID,0.483203,
2009-08-05, 01:18:04,VALID,1003.1,VALID,0,VALID,86.5725,VALID,0,VALID,25.785,VALID,335,VALID,0.496484,
2009-08-05, 01:19:04,VALID,1003.11,VALID,0,VALID,86.5039,VALID,0,VALID,25.8064,VALID,358,VALID,0.482031,
2009-08-05, 01:20:04,VALID,1003.1,VALID,0,VALID,86.6183,VALID,0,VALID,25.785,VALID,358,VALID,0.371875,
2009-08-05, 01:21:04,VALID,1003.13,VALID,0,VALID,86.5039,VALID,0,VALID,25.7655,VALID,358,VALID,0.297656,
2009-08-05, 01:22:04,VALID,1003.09,VALID,0,VALID,86.275,VALID,0,VALID,25.746,VALID,358,VALID,0.319141,
2009-08-05, 01:23:04,VALID,1003.13,VALID,0,VALID,86.2598,VALID,0,VALID,25.748,VALID,358,VALID,0.412891,
2009-08-05, 01:24:04,VALID,1003.11,VALID,0,VALID,86.2903,VALID,0,VALID,25.7071,VALID,354,VALID,0.611719,
2009-08-05, 01:25:04,VALID,1003.09,VALID,0,VALID,86.2903,VALID,0,VALID,25.7071,VALID,351,VALID,0.234766,
2009-08-05, 01:26:04,VALID,1003.09,VALID,0,VALID,86.3132,VALID,0,VALID,25.709,VALID,351,VALID,0.229297,
2009-08-05, 01:27:04,VALID,1003.08,VALID,0,VALID,86.3208,VALID,0,VALID,25.6876,VALID,351,VALID,0.367188,
2009-08-05, 01:28:04,VALID,1003.08,VALID,0,VALID,86.4581,VALID,0,VALID,25.6895,VALID,351,VALID,0.290234,
2009-08-05, 01:29:04,VALID,1003.04,VALID,0,VALID,86.3666,VALID,0,VALID,25.6681,VALID,351,VALID,0.278906,
2009-08-05, 01:30:04,VALID,1003.08,VALID,0,VALID,86.481,VALID,0,VALID,25.6681,VALID,351,VALID,0.0398437,
2009-08-05, 01:31:04,VALID,1003.05,VALID,0,VALID,86.481,VALID,0,VALID,25.6681,VALID,351,VALID,0.121484,
2009-08-05, 01:32:04,VALID,1003.06,VALID,0,VALID,86.4276,VALID,0,VALID,25.7285,VALID,352,VALID,0.329688,
2009-08-05, 01:33:04,VALID,1003.04,VALID,0,VALID,86.3132,VALID,0,VALID,25.6876,VALID,348,VALID,0.34375,
2009-08-05, 01:34:04,VALID,1003.01,VALID,0,VALID,86.4352,VALID,0,VALID,25.7265,VALID,333,VALID,0.54375,
2009-08-05, 01:35:04,VALID,1002.99,VALID,0,VALID,86.2903,VALID,0,VALID,25.7071,VALID,347,VALID,0.527734,
2009-08-05, 01:36:04,VALID,1002.98,VALID,0,VALID,86.3208,VALID,0,VALID,25.7071,VALID,349,VALID,0.601172,
2009-08-05, 01:37:04,VALID,1002.96,VALID,0,VALID,86.1911,VALID,0,VALID,25.7071,VALID,348,VALID,0.599219,
2009-08-05, 01:38:04,VALID,1002.98,VALID,0,VALID,86.3055,VALID,0,VALID,25.7071,VALID,349,VALID,0.471484,
2009-08-05, 01:39:04,VALID,1002.97,VALID,0,VALID,86.4886,VALID,0,VALID,25.7285,VALID,351,VALID,0.746875,
2009-08-05, 01:40:04,VALID,1002.96,VALID,0,VALID,86.6031,VALID,0,VALID,25.709,VALID,348,VALID,0.788672,
2009-08-05, 01:41:04,VALID,1002.95,VALID,0,VALID,86.6641,VALID,0,VALID,25.6876,VALID,349,VALID,0.812109,
2009-08-05, 01:42:04,VALID,1002.92,VALID,0,VALID,86.7556,VALID,0,VALID,25.6876,VALID,339,VALID,0.348047,
2009-08-05, 01:43:04,VALID,1002.89,VALID,0,VALID,86.9769,VALID,0,VALID,25.6486,VALID,339,VALID,0.45625,
2009-08-05, 01:44:04,VALID,1002.93,VALID,0,VALID,87.221,VALID,0,VALID,25.5921,VALID,339,VALID,0.425781,
2009-08-05, 01:45:04,VALID,1002.9,VALID,0,VALID,87.5033,VALID,0,VALID,25.5532,VALID,339,VALID,0.214062,
2009-08-05, 01:46:04,VALID,1002.93,VALID,0,VALID,87.7245,VALID,0,VALID,25.4539,VALID,345,VALID,0.466016,
2009-08-05, 01:47:04,VALID,1002.88,VALID,0,VALID,87.8618,VALID,0,VALID,25.4344,VALID,358,VALID,0.302734,
2009-08-05, 01:48:04,VALID,1002.92,VALID,0,VALID,87.9228,VALID,0,VALID,25.4169,VALID,353,VALID,0.371094,
2009-08-05, 01:49:04,VALID,1002.91,VALID,0,VALID,87.9534,VALID,0,VALID,25.3974,VALID,348,VALID,0.582422,
2009-08-05, 01:50:04,VALID,1002.92,VALID,0,VALID,87.8771,VALID,0,VALID,25.376,VALID,349,VALID,0.503906,
2009-08-05, 01:51:04,VALID,1002.94,VALID,0,VALID,87.8923,VALID,0,VALID,25.3955,VALID,350,VALID,0.18125,
2009-08-05, 01:52:04,VALID,1002.94,VALID,0,VALID,87.9762,VALID,0,VALID,25.3955,VALID,350,VALID,0.285547,
2009-08-05, 01:53:04,VALID,1002.96,VALID,0,VALID,87.8466,VALID,0,VALID,25.3955,VALID,325,VALID,0.260938,
2009-08-05, 01:54:04,VALID,1002.96,VALID,0,VALID,87.8008,VALID,0,VALID,25.4169,VALID,325,VALID,0,
2009-08-05, 01:55:04,VALID,1002.99,VALID,0,VALID,87.8923,VALID,0,VALID,25.3955,VALID,325,VALID,0,
2009-08-05, 01:56:04,VALID,1002.96,VALID,0,VALID,87.7626,VALID,0,VALID,25.3974,VALID,356,VALID,0.630469,
2009-08-05, 01:57:04,VALID,1002.99,VALID,0,VALID,87.6406,VALID,0,VALID,25.4363,VALID,349,VALID,0.741016,
2009-08-05, 01:58:04,VALID,1002.93,VALID,0,VALID,87.5338,VALID,0,VALID,25.4539,VALID,349,VALID,0.0804688,
2009-08-05, 01:59:04,VALID,1002.93,VALID,0,VALID,87.4956,VALID,0,VALID,25.4558,VALID,349,VALID,0.451172,
2009-08-05, 02:00:04,VALID,1002.92,VALID,0,VALID,87.5185,VALID,0,VALID,25.4344,VALID,349,VALID,0.450391,
2009-08-05, 02:01:04,VALID,1002.9,VALID,0,VALID,87.6711,VALID,0,VALID,25.4149,VALID,349,VALID,0.448438,
2009-08-05, 02:02:04,VALID,1002.86,VALID,0,VALID,87.3965,VALID,0,VALID,25.3974,VALID,344,VALID,0.454297,
2009-08-05, 02:03:04,VALID,1002.86,VALID,0,VALID,87.5338,VALID,0,VALID,25.376,VALID,344,VALID,0.712109,
2009-08-05, 02:04:04,VALID,1002.85,VALID,0,VALID,87.6177,VALID,0,VALID,25.3584,VALID,345,VALID,0.395312,
2009-08-05, 02:05:04,VALID,1002.89,VALID,0,VALID,87.8084,VALID,0,VALID,25.2786,VALID,345,VALID,0.4125,
2009-08-05, 02:06:04,VALID,1002.88,VALID,0,VALID,87.8008,VALID,0,VALID,25.2806,VALID,345,VALID,0.534375,
2009-08-05, 02:07:04,VALID,1002.87,VALID,0,VALID,87.8771,VALID,0,VALID,25.2202,VALID,345,VALID,0.455078,
2009-08-05, 02:08:04,VALID,1002.88,VALID,0,VALID,87.6482,VALID,0,VALID,25.2202,VALID,344,VALID,0.476563,
2009-08-05, 02:09:04,VALID,1002.87,VALID,0,VALID,87.7245,VALID,0,VALID,25.2007,VALID,344,VALID,0.315234,
2009-08-05, 02:10:04,VALID,1002.84,VALID,0,VALID,87.7245,VALID,0,VALID,25.2007,VALID,344,VALID,0.284766,
2009-08-05, 02:11:04,VALID,1002.89,VALID,0,VALID,87.755,VALID,0,VALID,25.1813,VALID,344,VALID,0.315625,
2009-08-05, 02:12:04,VALID,1002.89,VALID,0,VALID,87.9381,VALID,0,VALID,25.1832,VALID,344,VALID,0.105078,
2009-08-05, 02:13:04,VALID,1002.89,VALID,0,VALID,87.9686,VALID,0,VALID,25.1442,VALID,344,VALID,0.235156,
2009-08-05, 02:14:04,VALID,1002.9,VALID,0,VALID,87.9076,VALID,0,VALID,25.1637,VALID,344,VALID,0,
2009-08-05, 02:15:04,VALID,1002.9,VALID,0,VALID,87.8618,VALID,0,VALID,25.1637,VALID,344,VALID,0.2125,
2009-08-05, 02:16:04,VALID,1002.9,VALID,0,VALID,87.8618,VALID,0,VALID,25.1637,VALID,344,VALID,0.201562,
2009-08-05, 02:17:04,VALID,1002.9,VALID,0,VALID,88.0144,VALID,0,VALID,25.2046,VALID,344,VALID,0.342187,
2009-08-05, 02:18:04,VALID,1002.89,VALID,0,VALID,88.0831,VALID,0,VALID,25.1442,VALID,344,VALID,0.448828,
2009-08-05, 02:19:04,VALID,1002.85,VALID,0,VALID,88.4416,VALID,0,VALID,25.0858,VALID,344,VALID,0.425391,
2009-08-05, 02:20:04,VALID,1002.87,VALID,0,VALID,88.7697,VALID,0,VALID,25.0079,VALID,344,VALID,0.405859,
2009-08-05, 02:21:04,VALID,1002.84,VALID,0,VALID,89.0672,VALID,0,VALID,24.9514,VALID,344,VALID,0.533984,
2009-08-05, 02:22:04,VALID,1002.85,VALID,0,VALID,89.3266,VALID,0,VALID,24.854,VALID,344,VALID,0.403516,
2009-08-05, 02:23:04,VALID,1002.84,VALID,0,VALID,89.8606,VALID,0,VALID,24.7743,VALID,344,VALID,0.493359,
2009-08-05, 02:24:04,VALID,1002.86,VALID,0,VALID,90.2115,VALID,0,VALID,24.7159,VALID,344,VALID,0.361328,
2009-08-05, 02:25:04,VALID,1002.84,VALID,0,VALID,90.4938,VALID,0,VALID,24.6964,VALID,344,VALID,0.525391,
2009-08-05, 02:26:04,VALID,1002.83,VALID,0,VALID,90.6311,VALID,0,VALID,24.6574,VALID,344,VALID,0.434375,
2009-08-05, 02:27:04,VALID,1002.81,VALID,0,VALID,90.8218,VALID,0,VALID,24.599,VALID,344,VALID,0.248047,
2009-08-05, 02:28:04,VALID,1002.85,VALID,0,VALID,91.0125,VALID,0.100563,VALID,24.5777,VALID,344,VALID,0.272266,
2009-08-05, 02:29:04,VALID,1002.83,VALID,0,VALID,91.127,VALID,0.100563,VALID,24.5582,VALID,344,VALID,0.185547,
2009-08-05, 02:30:04,VALID,1002.86,VALID,0,VALID,91.2109,VALID,0,VALID,24.5193,VALID,344,VALID,0.232812,
2009-08-05, 02:31:04,VALID,1002.85,VALID,0,VALID,91.2872,VALID,0.100563,VALID,24.498,VALID,344,VALID,0,
2009-08-05, 02:32:04,VALID,1002.84,VALID,0,VALID,91.3406,VALID,0.100563,VALID,24.4804,VALID,344,VALID,0,
2009-08-05, 02:33:04,VALID,1002.84,VALID,0,VALID,91.4474,VALID,0.100563,VALID,24.4609,VALID,344,VALID,0,
2009-08-05, 02:34:04,VALID,1002.8,VALID,0,VALID,91.5695,VALID,0.100563,VALID,24.4609,VALID,344,VALID,0,
2009-08-05, 02:35:04,VALID,1002.8,VALID,0,VALID,91.6991,VALID,0.100563,VALID,24.4414,VALID,344,VALID,0,
2009-08-05, 02:36:04,VALID,1002.77,VALID,0,VALID,91.7754,VALID,0,VALID,24.4025,VALID,344,VALID,0,
2009-08-05, 02:37:04,VALID,1002.78,VALID,0,VALID,91.7754,VALID,0.100563,VALID,24.383,VALID,344,VALID,0,
2009-08-05, 02:38:04,VALID,1002.76,VALID,0,VALID,91.8899,VALID,0,VALID,24.3228,VALID,344,VALID,0,
2009-08-05, 02:39:04,VALID,1002.8,VALID,0,VALID,92.0272,VALID,0.100563,VALID,24.3246,VALID,344,VALID,0,
2009-08-05, 02:40:04,VALID,1002.82,VALID,0,VALID,92.1264,VALID,0.100563,VALID,24.3441,VALID,344,VALID,0,
2009-08-05, 02:41:04,VALID,1002.85,VALID,0,VALID,92.1569,VALID,0.100563,VALID,24.3441,VALID,344,VALID,0,
2009-08-05, 02:42:04,VALID,1002.85,VALID,0,VALID,92.1111,VALID,0.100563,VALID,24.3246,VALID,344,VALID,0,
2009-08-05, 02:43:04,VALID,1002.85,VALID,0,VALID,92.1569,VALID,0,VALID,24.3052,VALID,344,VALID,0,
2009-08-05, 02:44:04,VALID,1002.87,VALID,0,VALID,92.1645,VALID,0.100563,VALID,24.2857,VALID,344,VALID,0,
2009-08-05, 02:45:04,VALID,1002.85,VALID,0,VALID,92.2484,VALID,0.100563,VALID,24.2857,VALID,344,VALID,0,
2009-08-05, 02:46:04,VALID,1002.86,VALID,0,VALID,92.2866,VALID,0.100563,VALID,24.2857,VALID,344,VALID,0,
2009-08-05, 02:47:04,VALID,1002.85,VALID,0,VALID,92.3323,VALID,0.100563,VALID,24.2468,VALID,344,VALID,0,
2009-08-05, 02:48:04,VALID,1002.87,VALID,0,VALID,92.3247,VALID,0.100563,VALID,24.2662,VALID,344,VALID,0,
2009-08-05, 02:49:04,VALID,1002.9,VALID,0,VALID,92.3323,VALID,0.100563,VALID,24.2468,VALID,344,VALID,0.493359,
2009-08-05, 02:50:04,VALID,1002.84,VALID,0,VALID,92.3476,VALID,0,VALID,24.2468,VALID,344,VALID,0.401172,
2009-08-05, 02:51:04,VALID,1002.89,VALID,0,VALID,92.3552,VALID,0.100563,VALID,24.2291,VALID,344,VALID,0.49375,
2009-08-05, 02:52:04,VALID,1002.86,VALID,0,VALID,92.3629,VALID,0.100563,VALID,24.2078,VALID,344,VALID,0.534375,
2009-08-05, 02:53:04,VALID,1002.84,VALID,0,VALID,92.3857,VALID,0.100563,VALID,24.1884,VALID,344,VALID,0.459766,
2009-08-05, 02:54:04,VALID,1002.84,VALID,0,VALID,92.3857,VALID,0.100563,VALID,24.1476,VALID,344,VALID,0.425,
2009-08-05, 02:55:04,VALID,1002.81,VALID,0,VALID,92.3934,VALID,0.100563,VALID,24.1087,VALID,344,VALID,0.421484,
2009-08-05, 02:56:04,VALID,1002.82,VALID,0,VALID,92.4544,VALID,0.100563,VALID,24.1105,VALID,344,VALID,0.365234,
2009-08-05, 02:57:04,VALID,1002.82,VALID,0,VALID,92.5002,VALID,0.100563,VALID,24.0892,VALID,344,VALID,0.344922,
2009-08-05, 02:58:04,VALID,1002.82,VALID,0,VALID,92.5383,VALID,0,VALID,24.0929,VALID,344,VALID,0.278125,
2009-08-05, 02:59:04,VALID,1002.84,VALID,0,VALID,92.6222,VALID,0,VALID,24.0734,VALID,344,VALID,0.311719,
2009-08-05, 03:00:04,VALID,1002.79,VALID,0,VALID,92.7138,VALID,0,VALID,24.0539,VALID,344,VALID,0.496484,
2009-08-05, 03:01:04,VALID,1002.81,VALID,0,VALID,92.7062,VALID,0,VALID,24.0345,VALID,344,VALID,0.530859,
2009-08-05, 03:02:04,VALID,1002.8,VALID,0,VALID,92.7901,VALID,0,VALID,24.015,VALID,344,VALID,0.513672,
2009-08-05, 03:03:04,VALID,1002.79,VALID,0,VALID,92.8358,VALID,0,VALID,23.9955,VALID,346,VALID,0.587109,
2009-08-05, 03:04:04,VALID,1002.81,VALID,0,VALID,92.9198,VALID,0,VALID,23.9761,VALID,348,VALID,0.494531,
2009-08-05, 03:05:04,VALID,1002.81,VALID,0,VALID,92.9732,VALID,0,VALID,23.9548,VALID,348,VALID,0.407031,
2009-08-05, 03:06:04,VALID,1002.78,VALID,0,VALID,93.0876,VALID,0,VALID,23.9548,VALID,348,VALID,0.376953,
2009-08-05, 03:07:04,VALID,1002.8,VALID,0,VALID,93.1029,VALID,0,VALID,23.9371,VALID,348,VALID,0.397266,
2009-08-05, 03:08:04,VALID,1002.8,VALID,0,VALID,93.1563,VALID,0,VALID,23.9159,VALID,348,VALID,0.294922,
2009-08-05, 03:09:04,VALID,1002.8,VALID,0,VALID,93.1486,VALID,0,VALID,23.8964,VALID,348,VALID,0.305078,
2009-08-05, 03:10:04,VALID,1002.8,VALID,0,VALID,93.1944,VALID,0,VALID,23.8769,VALID,348,VALID,0.319141,
2009-08-05, 03:11:04,VALID,1002.78,VALID,0,VALID,93.2478,VALID,0,VALID,23.8964,VALID,348,VALID,0.300781,
2009-08-05, 03:12:04,VALID,1002.77,VALID,0,VALID,93.2173,VALID,0,VALID,23.8787,VALID,348,VALID,0.380859,
2009-08-05, 03:13:04,VALID,1002.77,VALID,0,VALID,93.2554,VALID,0,VALID,23.8805,VALID,348,VALID,0.319531,
2009-08-05, 03:14:04,VALID,1002.72,VALID,0,VALID,93.3088,VALID,0,VALID,23.838,VALID,348,VALID,0.381641,
2009-08-05, 03:15:04,VALID,1002.73,VALID,0,VALID,93.3088,VALID,0,VALID,23.8398,VALID,348,VALID,0.419922,
2009-08-05, 03:16:04,VALID,1002.73,VALID,0,VALID,93.3928,VALID,0,VALID,23.8398,VALID,348,VALID,0.417969,
2009-08-05, 03:17:04,VALID,1002.76,VALID,0,VALID,93.4538,VALID,0,VALID,23.8593,VALID,348,VALID,0.421484,
2009-08-05, 03:18:04,VALID,1002.72,VALID,0,VALID,93.4156,VALID,0,VALID,23.8398,VALID,348,VALID,0.479297,
2009-08-05, 03:19:04,VALID,1002.73,VALID,0,VALID,93.4004,VALID,0,VALID,23.8398,VALID,348,VALID,0.519141,
2009-08-05, 03:20:04,VALID,1002.73,VALID,0,VALID,93.3622,VALID,0,VALID,23.8009,VALID,348,VALID,0.177734,
2009-08-05, 03:21:04,VALID,1002.74,VALID,0,VALID,93.3699,VALID,0,VALID,23.8009,VALID,348,VALID,0.349219,
2009-08-05, 03:22:04,VALID,1002.72,VALID,0,VALID,93.4309,VALID,0,VALID,23.7814,VALID,348,VALID,0.450781,
2009-08-05, 03:23:04,VALID,1002.68,VALID,0,VALID,93.5224,VALID,0,VALID,23.8009,VALID,348,VALID,0.442187,
2009-08-05, 03:24:04,VALID,1002.67,VALID,0,VALID,93.675,VALID,0,VALID,23.8009,VALID,348,VALID,0.573438,
2009-08-05, 03:25:04,VALID,1002.65,VALID,0,VALID,93.7513,VALID,0,VALID,23.7991,VALID,348,VALID,0.533203,
2009-08-05, 03:26:04,VALID,1002.63,VALID,0,VALID,93.7589,VALID,0,VALID,23.8398,VALID,348,VALID,0.510547,
2009-08-05, 03:27:04,VALID,1002.61,VALID,0,VALID,93.7437,VALID,0,VALID,23.8203,VALID,348,VALID,0.454688,
2009-08-05, 03:28:04,VALID,1002.64,VALID,0,VALID,93.7666,VALID,0,VALID,23.8398,VALID,348,VALID,0.53125,
2009-08-05, 03:29:04,VALID,1002.65,VALID,0,VALID,93.7971,VALID,0,VALID,23.8203,VALID,348,VALID,0.380469,
2009-08-05, 03:30:04,VALID,1002.64,VALID,0,VALID,93.82,VALID,0,VALID,23.8398,VALID,348,VALID,0.342578,
2009-08-05, 03:31:04,VALID,1002.66,VALID,0,VALID,93.82,VALID,0,VALID,23.8398,VALID,348,VALID,0.396875,
2009-08-05, 03:32:04,VALID,1002.65,VALID,0,VALID,93.8505,VALID,0,VALID,23.8416,VALID,348,VALID,0.48125,
2009-08-05, 03:33:04,VALID,1002.67,VALID,0,VALID,93.8123,VALID,0,VALID,23.8203,VALID,353,VALID,0.460156,
2009-08-05, 03:34:04,VALID,1002.67,VALID,0,VALID,93.7895,VALID,0,VALID,23.7814,VALID,353,VALID,0.481641,
2009-08-05, 03:35:04,VALID,1002.69,VALID,0,VALID,93.8047,VALID,0,VALID,23.7601,VALID,353,VALID,0.425391,
2009-08-05, 03:36:04,VALID,1002.68,VALID,0,VALID,93.8886,VALID,0,VALID,23.8009,VALID,353,VALID,0.287891,
2009-08-05, 03:37:04,VALID,1002.67,VALID,0,VALID,94.0107,VALID,0,VALID,23.8009,VALID,353,VALID,0.391406,
2009-08-05, 03:38:04,VALID,1002.67,VALID,0,VALID,94.0946,VALID,0,VALID,23.8398,VALID,353,VALID,0.380469,
2009-08-05, 03:39:04,VALID,1002.71,VALID,0,VALID,94.1251,VALID,0,VALID,23.8593,VALID,353,VALID,0.390625,
2009-08-05, 03:40:04,VALID,1002.69,VALID,0,VALID,94.087,VALID,0,VALID,23.8593,VALID,353,VALID,0.434375,
2009-08-05, 03:41:04,VALID,1002.67,VALID,0,VALID,94.0565,VALID,0,VALID,23.8575,VALID,353,VALID,0.332031,
2009-08-05, 03:42:04,VALID,1002.68,VALID,0,VALID,94.0565,VALID,0,VALID,23.8982,VALID,353,VALID,0.294141,
2009-08-05, 03:43:04,VALID,1002.67,VALID,0,VALID,94.0946,VALID,0,VALID,23.8982,VALID,353,VALID,0.260156,
2009-08-05, 03:44:04,VALID,1002.67,VALID,0,VALID,94.0488,VALID,0,VALID,23.9389,VALID,353,VALID,0.314063,